Dewpoint
68 68 68 68 68 68 68 68 68 68 68 67 66 66 65 65 65 65 65 64 65 67 69 69 70 69 69 68 68 67 67 66 67 67 66 67 67 66 66 65 65 65 64
68 68 68 68 68 68 68 68 68 67 67 67 67 66 66 65 65 65 65 65 63 65 67 69 69 69 69 69 68 67 66 66 67 67 66 67 66 66 65 64 64 64 64
67 67 67 68 69 68 68 68 67 67 67 67 67 66 66 66 66 65 65 64 64 62 63 66 67 68 68 69 68 67 67 65 66 67 67 67 66 65 64 64 63 63 63
64 67 67 67 68 68 67 67 67 67 66 66 66 65 66 66 65 65 64 64 63 63 63 64 65 67 67 68 69 68 67 65 66 67 67 66 66 65 64 64 63 63 63
59 60 63 67 67 67 67 67 67 67 66 65 65 65 65 65 65 65 64 63 62 62 62 61 62 62 65 66 68 68 67 66 65 66 67 66 65 65 64 63 63 63 62
55 56 58 62 66 65 65 66 65 66 65 65 65 65 64 64 65 65 64 63 62 62 61 60 60 61 62 65 67 68 67 66 66 66 65 66 66 64 64 63 63 62 61
50 50 52 54 57 63 64 63 64 63 64 65 62 61 60 62 62 63 63 63 62 62 61 61 61 60 61 62 65 67 66 66 66 65 65 65 65 64 63 63 62 61 61
47 48 50 51 54 55 58 64 64 62 62 63 60 60 58 59 61 63 63 62 62 62 62 62 62 61 60 61 63 65 65 66 67 65 65 65 65 64 63 63 62 61 61
45 47 48 50 51 53 53 57 63 63 62 61 62 58 53 55 57 59 61 62 61 62 62 61 61 61 60 61 62 62 61 61 64 66 65 65 64 64 63 63 62 61 61
45 47 48 48 49 51 53 55 59 63 63 58 57 58 56 56 54 51 58 60 61 61 61 61 61 61 61 61 61 60 58 57 59 64 65 65 65 64 64 63 62 62 61
44 46 48 47 48 49 50 53 54 58 63 61 56 55 56 55 55 52 51 54 60 61 61 60 60 60 61 61 61 59 56 56 56 60 62 64 64 64 63 63 62 62 61
42 45 46 47 49 50 51 52 54 57 61 60 58 57 55 54 54 53 51 52 53 57 61 61 59 59 59 60 60 58 55 54 55 57 60 61 62 63 63 63 62 62 61
41 43 44 45 46 49 50 52 52 54 59 60 57 56 57 55 55 55 54 53 53 56 58 60 60 59 59 59 59 57 56 53 53 55 57 58 60 62 62 62 62 61 61
39 41 42 43 44 46 48 50 53 53 56 60 58 56 56 57 57 56 55 54 52 53 55 54 59 59 59 59 58 55 59 52 51 52 53 55 57 59 60 60 60 59 60
37 39 40 41 42 44 47 50 53 53 54 59 59 58 57 57 58 57 57 56 53 51 53 55 56 58 59 59 58 59 59 55 50 50 50 53 55 57 58 58 58 58 58
36 37 37 39 41 42 45 47 50 54 54 58 59 58 58 58 57 57 58 58 56 53 51 55 56 57 58 58 57 59 58 55 50 49 49 50 52 55 55 56 56 55 56
34 34 35 37 38 38 41 42 44 54 54 55 58 58 57 58 58 59 58 58 57 56 53 53 55 55 58 58 58 58 58 58 55 49 48 49 50 51 52 52 52 53 53
32 32 33 34 35 36 38 38 40 43 54 55 57 57 56 56 56 57 58 57 57 57 56 54 54 55 57 58 57 58 58 59 58 50 48 48 49 49 49 49 50 50 50
31 31 32 32 33 35 35 36 37 40 45 56 56 57 56 57 57 58 58 58 57 57 56 55 54 56 56 57 58 58 57 58 57 52 47 46 47 48 48 48 49 49 49
29 29 30 31 32 33 33 34 35 41 46 51 56 58 58 57 56 57 57 57 57 56 56 56 55 55 55 56 57 54 50 49 49 48 47 47 47 47 47 48 48 49 48
28 28 29 30 31 31 31 33 34 36 38 39 40 45 51 50 51 53 57 56 55 55 55 55 55 55 55 54 54 54 53 45 43 45 45 42 45 47 48 46 49 48 47
26 27 27 28 29 31 33 32 33 33 33 34 35 35 38 38 43 44 45 46 51 53 52 53 53 54 54 55 55 52 44 44 45 41 42 38 38 39 39 42 47 46 46
26 25 25 26 28 31 33 33 31 31 31 31 32 33 33 34 35 40 38 37 37 38 43 54 54 54 54 55 54 50 47 46 46 40 39 34 34 34 35 38 41 43 45
23 23 24 25 26 29 33 33 31 30 29 29 30 31 32 32 33 36 36 34 32 33 33 37 48 37 38 41 52 52 51 41 35 34 36 34 32 31 33 34 39 41 43
21 22 23 24 25 27 32 32 30 29 28 28 29 30 30 31 33 34 32 33 32 30 32 34 34 34 34 35 40 45 39 40 33 33 33 32 31 29 30 31 33 38 39
20 22 23 24 24 24 28 30 29 28 27 27 28 28 31 31 31 31 28 28 29 27 28 28 31 30 31 32 34 34 41 43 33 32 33 31 30 30 27 29 31 32 33
Lifted_Index
-5 -5 -5 -5 -5 -5 -5 -5 -6 -6 -6 -6 -5 -5 -4 -4 -3 -3 -3 -2 -2 -3 -3 -4 -4 -3 -3 -3 -3 -3 -2 -2 -2 -1 -1 -2 -2 -2 -1 -1 -0 0 1
-5 -5 -5 -5 -5 -5 -5 -5 -6 -6 -6 -6 -5 -5 -5 -4 -4 -3 -3 -3 -2 -3 -3 -3 -4 -3 -3 -3 -3 -3 -2 -2 -1 -1 -1 -2 -2 -1 -1 -0 0 1 1
-4 -4 -4 -5 -5 -5 -5 -5 -5 -5 -5 -5 -5 -5 -5 -5 -4 -4 -3 -3 -3 -3 -3 -3 -3 -3 -3 -3 -3 -2 -2 -1 -1 -1 -1 -2 -1 -1 -0 0 1 1 1
-4 -4 -4 -4 -5 -5 -5 -5 -5 -5 -5 -5 -5 -6 -5 -5 -4 -4 -4 -4 -3 -3 -2 -2 -2 -2 -2 -3 -3 -2 -2 -1 -1 -1 -1 -1 -1 -1 -0 1 1 1 2
-3 -3 -3 -4 -4 -4 -4 -4 -4 -4 -4 -4 -5 -5 -5 -5 -4 -4 -4 -4 -4 -3 -2 -2 -1 -1 -1 -2 -2 -2 -2 -1 -1 -1 -1 -1 -1 -0 0 1 1 2 2
-1 -1 -2 -3 -3 -3 -3 -3 -3 -3 -3 -3 -4 -4 -4 -4 -4 -4 -5 -5 -4 -4 -3 -2 -1 -1 -1 -1 -2 -2 -2 -1 -1 -1 -0 -0 -1 -0 0 1 2 2 2
2 1 -0 -2 -2 -2 -2 -3 -3 -2 -2 -2 -3 -3 -3 -3 -3 -4 -4 -5 -5 -4 -4 -3 -2 -1 -1 -1 -1 -1 -1 -1 -1 -1 -0 -0 -0 -0 1 1 2 2 3
6 5 3 1 -0 -1 -1 -2 -2 -3 -3 -3 -3 -3 -2 -2 -2 -2 -3 -4 -4 -5 -4 -3 -2 -1 -1 -0 -0 -0 -1 -1 -1 -1 -1 -1 -1 -0 1 1 2 2 3
7 7 6 5 3 2 1 0 -1 -3 -3 -3 -3 -2 -2 -1 -1 -1 -1 -2 -3 -4 -4 -3 -2 -1 -1 0 1 0 -0 -1 -1 -1 -1 -1 -1 -0 1 1 2 2 3
7 7 7 7 6 5 5 3 1 -1 -2 -3 -3 -3 -2 -1 -1 -0 -1 -1 -1 -2 -3 -3 -2 -1 -1 0 1 1 1 0 -0 -1 -1 -1 -1 -0 1 1 2 2 3
7 6 6 6 6 6 6 5 4 1 -1 -2 -3 -2 -2 -2 -1 -1 -0 0 -0 -2 -3 -3 -2 -1 -1 0 1 1 2 1 1 0 -0 -0 -0 0 1 1 1 2 2
6 6 5 5 5 5 5 5 5 3 0 -1 -2 -2 -2 -1 -1 -1 -0 1 1 -1 -2 -2 -2 -1 -1 -0 1 1 2 2 2 1 0 0 0 0 1 1 1 2 3
6 6 5 5 5 5 4 4 4 4 2 -0 -1 -2 -1 -1 -1 -1 -0 1 1 0 -1 -1 -2 -2 -1 -0 0 1 2 2 2 1 1 1 1 1 1 1 2 2 3
5 5 5 5 5 5 4 4 3 4 3 1 -1 -1 -1 -1 -1 -1 -0 -0 0 0 -0 -1 -1 -1 -1 -0 0 0 1 2 2 1 1 1 1 1 1 1 2 3 3
5 5 5 5 5 5 4 3 3 3 3 2 0 -0 -0 -0 -1 -1 -1 -1 -1 -0 -0 -0 -1 -1 -0 -0 0 0 0 1 1 1 1 1 1 1 1 2 2 3 4
6 6 6 6 5 5 4 3 2 2 2 2 1 -0 -0 -0 -0 -0 -1 -1 -1 -0 0 -0 -0 -0 0 0 0 -0 -0 1 1 1 1 1 2 2 2 2 3 3 4
7 7 6 6 5 5 4 3 2 2 2 2 1 0 -0 -0 -0 -0 -1 -1 -0 -0 0 0 -0 -0 0 1 0 -0 -0 1 1 1 1 1 2 2 2 2 3 3 3
8 7 7 7 6 5 4 3 2 1 1 1 1 0 0 0 -0 -0 -1 -0 -0 -0 0 0 0 -0 -0 0 0 -0 0 1 1 1 1 1 1 2 2 2 2 2 3
9 9 8 8 7 6 5 4 3 2 1 1 0 0 0 0 -0 -0 -1 -1 -0 -0 0 0 -0 -0 -0 0 0 0 0 1 1 1 1 1 1 2 2 2 2 2 2
10 10 10 9 8 7 6 4 3 2 1 1 1 0 0 0 -0 -0 -1 -1 -1 -0 -0 0 -0 -0 -0 0 0 0 0 1 1 1 1 1 1 1 1 1 1 1 2
12 12 11 11 10 9 8 6 4 3 2 2 2 1 1 1 1 -0 -0 -0 -0 0 0 0 0 0 0 1 1 1 1 1 1 1 1 1 1 1 1 1 1 1 1
12 12 12 12 12 12 12 10 7 5 4 3 3 3 3 2 2 1 0 1 1 1 1 1 1 1 1 1 1 1 1 1 1 1 1 1 1 1 1 1 1 1 1
13 13 13 13 13 14 14 13 11 9 7 6 5 4 4 3 3 2 2 1 1 1 1 1 2 2 1 1 1 1 1 1 1 1 1 1 1 1 1 1 1 1 1
14 14 14 14 14 14 14 14 13 12 11 10 8 7 6 5 4 3 2 2 1 1 1 1 1 1 1 1 1 1 1 1 1 1 2 2 2 2 2 1 2 2 1
16 15 15 15 14 15 15 15 14 13 12 12 11 10 9 8 7 5 3 2 2 2 2 2 1 1 1 1 1 1 1 1 1 1 2 2 2 2 2 2 2 2 2
16 16 15 15 16 16 16 15 15 14 13 12 13 13 12 10 9 7 4 3 2 2 2 2 2 1 2 2 2 1 1 1 1 1 2 2 2 2 2 2 2 2 2